[ hide orbit diagram ]
For accurate long-term ephemerides, please instead use our Horizons system.This orbit viewer was implemented using two-body methods, and hence should not be used for determining accurate long-term trajectories (over several years or decades) or planetary encounter circumstances.
Orbital Elements at Epoch 2459200.5 (2020-Dec-17.0) TDB
Reference: JPL 34 (heliocentric ecliptic J2000)
Element | Value | Uncertainty (1-sigma) | Units |
e | .1216761905412257 | 3.2469e-08 | |
a | 2.166047114661629 | 6.2112e-09 | au |
q | 1.902490753216789 | 7.1985e-08 | au |
i | 2.890963781901883 | 2.9246e-06 | deg |
node | 82.10143134098927 | 6.8799e-05 | deg |
peri | 167.720922900169 | 7.0304e-05 | deg |
M | .1883947717777694 | 1.6007e-05 | deg |
tp | 2459199.890650273096 (2020-Dec-16.39065027) | 5.1771e-05 | TDB |
period | 1164.394848198721 3.19 | 5.0084e-06 1.371e-08 | d yr |
n | .3091734737206264 | 1.3298e-09 | deg/d |
Q | 2.42960347610647 | 6.9669e-09 | au |
|
| | Orbit Determination Parameters
Additional Information
|
[ show covariance matrix ]
Physical Parameter Table
Parameter |
Symbol |
Value |
Units |
Sigma |
Reference |
Notes |
absolute magnitude |
H |
15.29 |
|
n/a |
E2021B10 |
|
diameter |
diameter |
2.177 |
km |
0.496 |
urn:nasa:pds:neowise_diameters_albedos::2.0[mainbelt] (http://adsabs.harvard.edu/abs/2011ApJ...741...68M) |
|
geometric albedo |
albedo |
0.258 |
|
0.238 |
urn:nasa:pds:neowise_diameters_albedos::2.0[mainbelt] (http://adsabs.harvard.edu/abs/2011ApJ...741...68M) |
|
|
46778 (1998 HR51) Discovered 1998-Apr-30 by LONEOS at Anderson Mesa |
Reference: 20020921/Numbers.arc | Last Updated: 2004-04-19 |
|
[ show close-approach data ]
|